Location: Dodgeville, WI 53533, USA
(43.0344°N, 90.0900°W)
Time: 01:45:07
(UTC-06:00)

N. Korean satellite - Pass Details

Date: 26 January 2021
Orbit: 451 x 502 km, 97.2° (Epoch: 04 March)

Event Time Altitude Azimuth Distance (km) Brightness Sun altitude
Rises 04:33:58 0° 30° (NNE) 2,498 10.6 -30.5°
Reaches altitude 10° 04:36:38 10° 52° (NE) 1,608 9.8 -30.0°
Maximum altitude 04:38:51 16° 93° (E) 1,270 9.5 -29.6°
Drops below altitude 10° 04:41:02 10° 133° (SE) 1,587 9.7 -29.2°
Sets 04:43:39 0° 156° (SSE) 2,449 10.4 -28.7°
